TimeCDT,TemperatureF,Dew PointF,Humidity,Sea Level PressureIn,VisibilityMPH,Wind Direction,Wind SpeedMPH,Gust SpeedMPH,PrecipitationIn,Events,Conditions,WindDirDegrees,DateUTC
12:55 AM,73.9,68.0,82,30.01,10.0,South,10.4,20.7,N/A,,Clear,170,2012-10-14 05:55:00
1:55 AM,73.0,68.0,84,30.00,10.0,South,10.4,-,N/A,,Clear,170,2012-10-14 06:55:00
2:55 AM,73.0,68.0,84,29.99,10.0,South,11.5,-,N/A,,Clear,170,2012-10-14 07:55:00
3:55 AM,72.0,68.0,87,29.99,10.0,South,10.4,-,N/A,,Clear,180,2012-10-14 08:55:00
4:55 AM,72.0,68.0,87,30.00,10.0,South,6.9,-,N/A,,Clear,180,2012-10-14 09:55:00
5:55 AM,71.1,68.0,90,30.02,10.0,South,3.5,-,N/A,,Scattered Clouds,190,2012-10-14 10:55:00
6:55 AM,72.0,69.1,91,30.04,10.0,South,5.8,-,N/A,,Clear,180,2012-10-14 11:55:00
7:55 AM,72.0,69.1,91,30.06,10.0,South,5.8,-,N/A,,Clear,190,2012-10-14 12:55:00
8:55 AM,73.9,69.1,85,30.09,10.0,SSW,8.1,-,N/A,,Clear,200,2012-10-14 13:55:00
9:55 AM,77.0,69.1,76,30.06,10.0,South,12.7,19.6,N/A,,Scattered Clouds,170,2012-10-14 14:55:00
10:55 AM,78.1,69.1,74,30.09,10.0,SW,6.9,-,N/A,,Clear,230,2012-10-14 15:55:00
11:55 AM,79.0,68.0,69,30.08,10.0,SSW,6.9,-,N/A,,Clear,200,2012-10-14 16:55:00
12:55 PM,80.1,66.9,64,30.05,10.0,SW,10.4,19.6,N/A,,Mostly Cloudy,220,2012-10-14 17:55:00
1:55 PM,80.1,66.9,64,30.03,10.0,SW,9.2,-,N/A,,Partly Cloudy,220,2012-10-14 18:55:00
2:55 PM,84.0,66.0,55,30.00,10.0,West,10.4,16.1,N/A,,Clear,260,2012-10-14 19:55:00
3:55 PM,82.0,66.0,58,30.00,10.0,Variable,6.9,-,N/A,,Overcast,0,2012-10-14 20:55:00
4:55 PM,84.0,66.0,55,29.99,10.0,SW,5.8,-,N/A,,Mostly Cloudy,230,2012-10-14 21:55:00
5:55 PM,82.9,66.0,56,29.98,10.0,SW,4.6,-,N/A,,Partly Cloudy,220,2012-10-14 22:55:00
6:55 PM,81.0,66.9,62,29.98,10.0,South,3.5,-,N/A,,Mostly Cloudy,190,2012-10-14 23:55:00
7:55 PM,79.0,68.0,69,29.99,10.0,Calm,Calm,-,N/A,Thunderstorm,Thunderstorm,0,2012-10-15 00:55:00
8:48 PM,73.4,69.8,88,30.01,3.0,North,-9999.0,-,0.15,Rain,Light Rain,0,2012-10-15 01:48:00
8:55 PM,73.9,71.1,91,30.01,6.0,NW,6.9,-,0.17,Rain-Thunderstorm,Thunderstorms and Rain,310,2012-10-15 01:55:00
9:55 PM,72.0,70.0,93,30.02,10.0,Calm,Calm,-,0.03,Thunderstorm,Thunderstorm,0,2012-10-15 02:55:00
10:14 PM,71.6,69.8,94,30.02,9.0,Calm,Calm,-,N/A,,Scattered Clouds,0,2012-10-15 03:14:00
10:55 PM,73.0,70.0,90,30.03,10.0,Calm,Calm,-,N/A,,Mostly Cloudy,0,2012-10-15 03:55:00
11:55 PM,71.1,68.0,90,30.04,10.0,NW,4.6,-,N/A,,Clear,320,2012-10-15 04:55:00